Volver al catálogo

ATLAS 5 CENTAUR DEB

LostHEO
NORAD 46866·DEBRIS·🇺🇸 United States

Lanzado Oct 17, 2018 desde Cape Canaveral Space Force Station

Loading…

Próximos Pases (próximas 24 horas)

TLE

ObsoletoSource: Space-Track

Época: Aug 1, 2022, 03:27 UTC

1 46866U 18079DX  22213.14391944 -.00000065  00000-0  00000+0 0  9991
2 46866  10.2572 125.2588 4247198 154.5077 234.4488  2.07003218 13194

Sigue ATLAS 5 CENTAUR DEB en tiempo real con AllMySat

Download on the App Store